Location: Berg
(47.2344°N, 9.5296°E)
Time: 15:50:08
(UTC+00:00)

Nauka - Pass Details

Date: 21 September 2021
Orbit: 417 x 423 km, 51.6° (Epoch: 20 October)

Event Time Altitude Azimuth Distance (km) Brightness Sun altitude
Rises 19:41:47 0° 274° (W) 2,363 ? -23.7°
Reaches altitude 10° 19:43:58 10° 283° (WNW) 1,500 ? -24.0°
Enters shadow 19:46:32 35° 325° (NW) 701 ? -24.4°
